When you browse on this site, cookies collect data to enhance your experience and personalize the content and advertising you see.
Visit our Privacy Policy to learn more. By continuing to use the site, you agree to this use of cookies and data.
  • In Hungary
  • List of Countries
  • For 7 days
  • Water Temperature
  • Weather Map
  • News
  • Weather Widgets
  • user-avatar
    Login

    Hourly Weather Bruszkowszczyzna

    Today, 9 December, Monday

    Time Temperature Precipitation Wind Pressure Humidity
    00:00 +4°C° 0.3 mm 7 mps 738 mmHg 82%
    01:00 +4°C° 0.3 mm 7 mps 738 mmHg 84%
    02:00 +4°C° 0 mm 6 mps 738 mmHg 84%
    03:00 +4°C° 0.3 mm 6 mps 738 mmHg 86%
    04:00 +4°C° 0.3 mm 6 mps 738 mmHg 88%
    05:00 +5°C° 0.3 mm 5 mps 737 mmHg 91%
    06:00 +5°C° 0.1 mm 5 mps 738 mmHg 90%
    07:00 +3°C° 0.1 mm 6 mps 738 mmHg 89%
    08:00 +3°C° 0 mm 5 mps 738 mmHg 87%
    09:00 +3°C° 0.1 mm 5 mps 739 mmHg 87%
    10:00 +3°C° 0.1 mm 5 mps 739 mmHg 87%
    11:00 +5°C° 0.1 mm 5 mps 739 mmHg 87%
    12:00 +5°C° 0.1 mm 5 mps 739 mmHg 86%
    13:00 +6°C° 0.1 mm 5 mps 739 mmHg 84%
    14:00 +6°C° 0.1 mm 5 mps 740 mmHg 83%
    15:00 +6°C° 0 mm 5 mps 740 mmHg 85%
    16:00 +5°C° 0 mm 4 mps 740 mmHg 86%
    17:00 +5°C° 0 mm 4 mps 740 mmHg 88%
    18:00 +5°C° 0 mm 3 mps 741 mmHg 89%
    19:00 +4°C° 0 mm 3 mps 741 mmHg 91%
    20:00 +4°C° 0 mm 3 mps 741 mmHg 92%
    21:00 +3°C° 0 mm 3 mps 741 mmHg 92%
    22:00 +4°C° 0 mm 2 mps 741 mmHg 92%
    23:00 +4°C° 0 mm 2 mps 742 mmHg 93%

    Tomorrow, 10 December, Tuesday

    Time Temperature Precipitation Wind Pressure Humidity
    00:00 +4°C° 0 mm 2 mps 742 mmHg 92%
    01:00 +3°C° 0 mm 3 mps 742 mmHg 91%
    02:00 +3°C° 0 mm 3 mps 742 mmHg 91%
    03:00 +2°C° 0 mm 3 mps 742 mmHg 91%
    04:00 +2°C° 0 mm 3 mps 743 mmHg 92%
    05:00 +1°C° 0 mm 3 mps 743 mmHg 92%
    06:00 +1°C° 0 mm 3 mps 743 mmHg 93%
    07:00 +1°C° 0 mm 3 mps 744 mmHg 93%
    08:00 +1°C° 0 mm 3 mps 744 mmHg 93%
    09:00 0°C° 0 mm 4 mps 744 mmHg 91%
    10:00 +1°C° 0 mm 4 mps 745 mmHg 89%
    11:00 +3°C° 0 mm 4 mps 745 mmHg 88%
    12:00 +2°C° 0 mm 5 mps 746 mmHg 81%
    13:00 +2°C° 0 mm 5 mps 746 mmHg 75%
    14:00 +2°C° 0 mm 5 mps 746 mmHg 69%
    15:00 +1°C° 0 mm 5 mps 747 mmHg 72%
    16:00 +1°C° 0 mm 5 mps 747 mmHg 75%
    17:00 0°C° 0 mm 5 mps 747 mmHg 78%
    18:00 0°C° 0.1 mm 5 mps 748 mmHg 83%
    19:00 0°C° 0.1 mm 5 mps 749 mmHg 89%
    20:00 +1°C° 0.1 mm 5 mps 749 mmHg 94%
    21:00 0°C° 0.1 mm 5 mps 750 mmHg 94%
    22:00 0°C° 0.1 mm 5 mps 750 mmHg 93%
    23:00 0°C° 0.1 mm 4 mps 750 mmHg 93%

    Day after tomorrow, 11 December, Wednesday

    Time Temperature Precipitation Wind Pressure Humidity
    00:00 0°C° 0.2 mm 4 mps 751 mmHg 92%
    01:00 +1°C° 0.2 mm 3 mps 751 mmHg 91%
    02:00 +2°C° 0.2 mm 2 mps 751 mmHg 90%
    03:00 +1°C° 0 mm 2 mps 751 mmHg 89%
    04:00 -1°C° 0 mm 2 mps 751 mmHg 87%
    05:00 -1°C° 0 mm 2 mps 751 mmHg 86%
    06:00 -2°C° 0 mm 2 mps 752 mmHg 87%
    07:00 -2°C° 0 mm 2 mps 752 mmHg 87%
    08:00 0°C° 0 mm 1 mps 752 mmHg 87%
    09:00 0°C° 0 mm 1 mps 752 mmHg 83%
    10:00 +1°C° 0 mm 1 mps 752 mmHg 79%
    11:00 +1°C° 0 mm 1 mps 752 mmHg 75%
    12:00 +1°C° 0 mm 1 mps 752 mmHg 74%
    13:00 +2°C° 0 mm 1 mps 751 mmHg 73%
    14:00 +2°C° 0 mm 1 mps 751 mmHg 72%
    15:00 +2°C° 0 mm 1 mps 751 mmHg 76%
    16:00 -1°C° 0 mm 2 mps 750 mmHg 81%
    17:00 -1°C° 0 mm 2 mps 750 mmHg 86%
    18:00 -2°C° 0 mm 2 mps 750 mmHg 88%
    19:00 -2°C° 0 mm 2 mps 750 mmHg 90%
    20:00 -2°C° 0 mm 2 mps 750 mmHg 91%
    21:00 -2°C° 0 mm 3 mps 750 mmHg 90%
    22:00 -2°C° 0 mm 3 mps 750 mmHg 89%
    23:00 -3°C° 0 mm 4 mps 749 mmHg 88%

    12 December, Thursday

    Time Temperature Precipitation Wind Pressure Humidity
    00:00 -2°C° 0 mm 4 mps 749 mmHg 87%
    01:00 -2°C° 0 mm 4 mps 748 mmHg 86%
    02:00 -2°C° 0 mm 4 mps 748 mmHg 86%
    03:00 -2°C° 0 mm 4 mps 747 mmHg 86%
    04:00 -2°C° 0 mm 5 mps 747 mmHg 87%
    05:00 -2°C° 0 mm 5 mps 746 mmHg 88%
    06:00 -1°C° 0 mm 5 mps 746 mmHg 90%
    07:00 -1°C° 0 mm 5 mps 746 mmHg 92%
    08:00 0°C° 0 mm 5 mps 745 mmHg 95%
    09:00 0°C° 0.1 mm 4 mps 745 mmHg 94%
    10:00 0°C° 0.1 mm 4 mps 745 mmHg 93%
    11:00 0°C° 0.1 mm 4 mps 745 mmHg 92%
    12:00 0°C° 0 mm 4 mps 745 mmHg 86%
    13:00 0°C° 0 mm 4 mps 744 mmHg 80%
    14:00 0°C° 0 mm 4 mps 744 mmHg 74%
    15:00 0°C° 0 mm 4 mps 744 mmHg 76%
    16:00 0°C° 0 mm 3 mps 744 mmHg 77%
    17:00 -1°C° 0 mm 3 mps 744 mmHg 78%
    18:00 -1°C° 0 mm 3 mps 744 mmHg 77%
    19:00 -1°C° 0 mm 3 mps 744 mmHg 76%
    20:00 -2°C° 0 mm 3 mps 744 mmHg 75%
    21:00 -1°C° 0 mm 3 mps 743 mmHg 75%
    22:00 -1°C° 0 mm 3 mps 743 mmHg 75%
    23:00 -1°C° 0 mm 3 mps 743 mmHg 75%

    13 December, Friday

    Time Temperature Precipitation Wind Pressure Humidity
    00:00 -1°C° 0 mm 3 mps 742 mmHg 79%
    01:00 -2°C° 0 mm 4 mps 742 mmHg 82%
    02:00 -2°C° 0 mm 4 mps 741 mmHg 86%
    03:00 -2°C° 0 mm 4 mps 741 mmHg 84%
    04:00 -2°C° 0 mm 4 mps 740 mmHg 82%
    05:00 -2°C° 0 mm 4 mps 740 mmHg 79%
    06:00 -2°C° 0 mm 5 mps 739 mmHg 83%
    07:00 -1°C° 0 mm 5 mps 739 mmHg 87%
    08:00 -1°C° 0 mm 6 mps 738 mmHg 91%
    09:00 -1°C° 0 mm 6 mps 738 mmHg 88%
    10:00 -1°C° 0 mm 6 mps 737 mmHg 86%
    11:00 0°C° 0 mm 7 mps 736 mmHg 83%
    12:00 0°C° 0 mm 7 mps 735 mmHg 83%
    13:00 +1°C° 0 mm 6 mps 735 mmHg 83%
    14:00 +1°C° 0 mm 6 mps 734 mmHg 83%
    15:00 +1°C° 0 mm 6 mps 733 mmHg 81%
    16:00 +1°C° 0 mm 6 mps 733 mmHg 79%
    17:00 +2°C° 0 mm 6 mps 733 mmHg 77%
    18:00 +1°C° 0 mm 6 mps 733 mmHg 76%
    19:00 +1°C° 0 mm 6 mps 733 mmHg 76%
    20:00 -1°C° 0 mm 6 mps 733 mmHg 75%
    21:00 -1°C° 0 mm 6 mps 732 mmHg 76%
    22:00 -1°C° 0 mm 6 mps 732 mmHg 78%
    23:00 -1°C° 0 mm 6 mps 732 mmHg 79%

    14 December, Saturday

    Time Temperature Precipitation Wind Pressure Humidity
    00:00 -1°C° 0.1 mm 6 mps 732 mmHg 85%
    01:00 -1°C° 0.1 mm 6 mps 732 mmHg 90%
    02:00 -1°C° 0.1 mm 6 mps 732 mmHg 96%
    03:00 0°C° 0 mm 5 mps 732 mmHg 95%
    04:00 0°C° 0 mm 5 mps 733 mmHg 94%
    05:00 0°C° 0 mm 5 mps 733 mmHg 93%
    06:00 0°C° 0 mm 5 mps 733 mmHg 92%
    07:00 +1°C° 0 mm 4 mps 733 mmHg 91%
    08:00 +1°C° 0 mm 4 mps 733 mmHg 90%
    09:00 +1°C° 0 mm 4 mps 734 mmHg 89%
    10:00 +1°C° 0 mm 4 mps 734 mmHg 88%
    11:00 +3°C° 0 mm 4 mps 734 mmHg 87%
    12:00 +3°C° 0.4 mm 4 mps 734 mmHg 90%
    13:00 +2°C° 0.4 mm 3 mps 734 mmHg 93%
    14:00 +3°C° 0.4 mm 2 mps 733 mmHg 97%
    15:00 +3°C° 0.5 mm 2 mps 734 mmHg 97%
    16:00 +3°C° 0.5 mm 2 mps 734 mmHg 97%
    17:00 +3°C° 0.5 mm 2 mps 734 mmHg 97%
    18:00 +2°C° 0.3 mm 3 mps 734 mmHg 97%
    19:00 +1°C° 0.3 mm 3 mps 734 mmHg 96%
    20:00 0°C° 0.3 mm 4 mps 734 mmHg 96%
    21:00 0°C° 0.1 mm 4 mps 735 mmHg 94%
    22:00 0°C° 0.1 mm 4 mps 735 mmHg 92%
    23:00 0°C° 0.1 mm 4 mps 736 mmHg 90%
    Show more